(145772) = 1997 WC4 = 2001 SS138

Discovered at Kitt Peak on 1997-11-20 by Spacewatch.

Orbit

Orbit type: Main Belt

Note: WebGL enabled browser required.

epoch2024-03-31.0
epoch JD2460400.5
perihelion date2023-11-26.86111
perihelion JD2460275.36111
argument of perihelion (°)224.83419
ascending node (°)226.97450
inclination (°)2.95388
eccentricity0.0414976
perihelion distance (AU)2.5135096
Tisserand w.r.t. Jupiter3.4
ΔV w.r.t. Earth (km/sec)9.9
semimajor axis (AU)2.6223301
mean anomaly (°)29.04458
mean daily motion (°/day)0.23209880
aphelion distance (AU)2.731
period (years)4.25
P-vector [x]-0.03087759
P-vector [y]0.93089097
P-vector [z]0.36398980
Q-vector [x]-0.99881297
Q-vector [y]-0.01501145
Q-vector [z]-0.04633896
absolute magnitude16.2
phase slope0.15
uncertainty0
referenceMPEC 2024-C60
observations used689
oppositions17
arc length (days)9593
first opposition used1997
last opposition used2024
residual rms (arc-secs)0.72
perturbers coarse indicatorM-v
perturbers precise indicator003Ek
first observation date used1997-10-30.0
last observation date used2024-02-05.0
computer nameMPCLINUX
JD of orbit computation2456966.746187
perihelion JD uncertainty (days)3.1796E-04
argument of perihelion uncertainty (°)1.1929E-04
ascending node uncertainty (°)9.3135E-05
inclination uncertainty (°)5.9891E-06
eccentricity uncertainty 4.4373E-08
perihelion distance uncertainty (AU)1.1291E-07
Minimum Orbit Intersection Distances (in AU)
for orbit epoch: 2460200.5, reference: E2024-C60
Mercury2.20564
Venus1.79493
Earth1.52976
Mars0.90239
Jupiter2.34046
Saturn6.53912
Uranus15.8537
Neptune27.2592

Observations

706 total observations over interval: 1997 10 30.92381 – 2024 02 05.129324
These data are available for download (format description).

Date (UT) J2000 RA J2000 Dec Magn Location Ref
1997 10 30.92381 02 27 09.04 +15 20 29.8 19.0 V 557 – Ondrejov MPS 33993
1997 10 30.95086 02 27 07.57 +15 20 21.5   557 – Ondrejov MPS 33993
1997 11 03.40595 02 24 00.34 +15 00 39.2 19.3 V 691 – Steward Observatory, Kitt Peak-Spacewatch MPS 33993
1997 11 03.42776 02 23 59.13 +15 00 31.9 19.5 V 691 – Steward Observatory, Kitt Peak-Spacewatch MPS 33993
1997 11 03.45028 02 23 57.88 +15 00 23.7 19.4 V 691 – Steward Observatory, Kitt Peak-Spacewatch MPS 33993
1997 11 20.23991 02 10 14.71 +13 28 26.5 20.3 V 691 – Steward Observatory, Kitt Peak-Spacewatch MPS 222
1997 11 20.26259 02 10 13.74 +13 28 20.2 20.1 V 691 – Steward Observatory, Kitt Peak-Spacewatch MPS 222
1997 11 20.30027 02 10 12.13 +13 28 08.7 19.7 V 691 – Steward Observatory, Kitt Peak-Spacewatch MPS 222
1997 11 25.10712 02 07 08.40 +13 05 46.8 19.9 V 691 – Steward Observatory, Kitt Peak-Spacewatch MPS 222
1997 11 25.12875 02 07 07.61 +13 05 41.1 19.9 V 691 – Steward Observatory, Kitt Peak-Spacewatch MPS 222
1997 11 25.15255 02 07 06.74 +13 05 35.2 19.9 V 691 – Steward Observatory, Kitt Peak-Spacewatch MPS 222
2001 09 16.38071 00 46 37.22 +08 21 21.2 20.5   704 – Lincoln Laboratory ETS, New Mexico MPS 36670
2001 09 16.39505 00 46 36.59 +08 21 18.3 20.0   704 – Lincoln Laboratory ETS, New Mexico MPS 36670
2001 09 16.40941 00 46 35.94 +08 21 13.4 20.1   704 – Lincoln Laboratory ETS, New Mexico MPS 36670
2001 09 16.42393 00 46 35.32 +08 21 09.7 20.1   704 – Lincoln Laboratory ETS, New Mexico MPS 36670
2001 09 20.32069 00 43 43.68 +08 01 18.5 18.9   704 – Lincoln Laboratory ETS, New Mexico MPS 36670
2001 09 20.33731 00 43 42.92 +08 01 14.1 19.4   704 – Lincoln Laboratory ETS, New Mexico MPS 36670
2001 09 20.35298 00 43 42.17 +08 01 08.3 19.9   704 – Lincoln Laboratory ETS, New Mexico MPS 36670
2001 09 20.36717 00 43 41.49 +08 01 04.0 19.1   704 – Lincoln Laboratory ETS, New Mexico MPS 36670
2001 09 20.38136 00 43 40.78 +08 00 58.7 19.8   704 – Lincoln Laboratory ETS, New Mexico MPS 36670
2001 09 23.33338 00 41 23.10 +07 44 41.7 19.0   704 – Lincoln Laboratory ETS, New Mexico MPS 42844
2001 09 23.34870 00 41 22.34 +07 44 37.0 19.0   704 – Lincoln Laboratory ETS, New Mexico MPS 42844
2001 09 23.37714 00 41 20.89 +07 44 27.2 19.3   704 – Lincoln Laboratory ETS, New Mexico MPS 42844
2001 09 23.39136 00 41 20.24 +07 44 21.9 19.4   704 – Lincoln Laboratory ETS, New Mexico MPS 42844
2001 09 24.33625 00 40 35.16 +07 38 59.9 19.6   704 – Lincoln Laboratory ETS, New Mexico MPS 42844
2001 09 24.35086 00 40 34.39 +07 38 54.4 20.4   704 – Lincoln Laboratory ETS, New Mexico MPS 42844
2001 09 24.36547 00 40 33.59 +07 38 49.3 19.9   704 – Lincoln Laboratory ETS, New Mexico MPS 42844
2001 09 24.38009 00 40 32.92 +07 38 44.1 19.7   704 – Lincoln Laboratory ETS, New Mexico MPS 42844
2001 09 24.39472 00 40 32.18 +07 38 40.1 20.1   704 – Lincoln Laboratory ETS, New Mexico MPS 42844
2001 10 09.24921 00 28 16.23 +06 06 00.2 20.2 V 333 – Desert Eagle Observatory MPS 38218
2001 10 09.29103 00 28 14.11 +06 05 44.3 19.8 V 333 – Desert Eagle Observatory MPS 38218
2001 10 09.33681 00 28 11.81 +06 05 26.6 19.6 V 333 – Desert Eagle Observatory MPS 38218
2001 10 11.35662 00 26 34.35 +05 52 28.6 19.7   644 – Palomar Mountain/NEAT MPS 38218
2001 10 11.37794 00 26 33.31 +05 52 20.4 19.7   644 – Palomar Mountain/NEAT MPS 38218
2001 10 11.39917 00 26 32.25 +05 52 12.1 19.6   644 – Palomar Mountain/NEAT MPS 38218
2001 10 13.19340 00 25 07.96 +05 40 44.3 20.0   704 – Lincoln Laboratory ETS, New Mexico MPS 38218
2001 10 13.20928 00 25 07.09 +05 40 38.9 20.4   704 – Lincoln Laboratory ETS, New Mexico MPS 38218
2001 10 13.24103 00 25 05.59 +05 40 26.7 19.9   704 – Lincoln Laboratory ETS, New Mexico MPS 38218
2001 10 16.26061 00 22 48.04 +05 21 29.1 20.4   704 – Lincoln Laboratory ETS, New Mexico MPS 38218
2001 10 16.29206 00 22 46.63 +05 21 17.1 19.9   704 – Lincoln Laboratory ETS, New Mexico MPS 38218
2001 10 16.30780 00 22 45.88 +05 21 11.4 20.3   704 – Lincoln Laboratory ETS, New Mexico MPS 38218
2001 10 21.16941 00 19 21.45 +04 51 54.2 19.2   704 – Lincoln Laboratory ETS, New Mexico MPS 40564
2001 10 21.18577 00 19 20.75 +04 51 49.2 19.4   704 – Lincoln Laboratory ETS, New Mexico MPS 40564
2001 10 21.20214 00 19 20.12 +04 51 43.4 19.7   704 – Lincoln Laboratory ETS, New Mexico MPS 40564
2001 10 21.21852 00 19 19.41 +04 51 37.9 19.5   704 – Lincoln Laboratory ETS, New Mexico MPS 40564
2001 10 21.23490 00 19 18.78 +04 51 31.9 19.8   704 – Lincoln Laboratory ETS, New Mexico MPS 40564
2003 01 07.39768 09 07 16.18 +11 51 10.1 19.3   704 – Lincoln Laboratory ETS, New Mexico MPS 73040
2003 01 07.41213 09 07 15.70 +11 51 14.0 19.9   704 – Lincoln Laboratory ETS, New Mexico MPS 73040
2003 01 07.42666 09 07 15.08 +11 51 13.6 19.9   704 – Lincoln Laboratory ETS, New Mexico MPS 73040
2003 01 07.44121 09 07 14.50 +11 51 15.1 19.7   704 – Lincoln Laboratory ETS, New Mexico MPS 73040
2003 01 27.31324 08 50 47.28 +12 43 36.7 19.2   704 – Lincoln Laboratory ETS, New Mexico MPS 71046
2003 01 27.32932 08 50 46.43 +12 43 40.0 19.4   704 – Lincoln Laboratory ETS, New Mexico MPS 71046
2003 01 27.34439 08 50 45.53 +12 43 42.6 19.2   704 – Lincoln Laboratory ETS, New Mexico MPS 71046
2003 01 27.35956 08 50 44.66 +12 43 45.0 19.3   704 – Lincoln Laboratory ETS, New Mexico MPS 71046
2003 01 27.37428 08 50 43.76 +12 43 48.4 19.2   704 – Lincoln Laboratory ETS, New Mexico MPS 71046
2003 01 28.32640 08 49 49.90 +12 47 10.6 19.6   704 – Lincoln Laboratory ETS, New Mexico MPS 71046
2003 01 28.34178 08 49 49.01 +12 47 14.0 20.0   704 – Lincoln Laboratory ETS, New Mexico MPS 71046
2003 01 28.35728 08 49 48.11 +12 47 16.8 19.4   704 – Lincoln Laboratory ETS, New Mexico MPS 71046
2003 01 28.37250 08 49 47.11 +12 47 20.7 19.8   704 – Lincoln Laboratory ETS, New Mexico MPS 71046
2003 02 02.31611 08 45 05.95 +13 05 24.4 18.4 C 704 – Lincoln Laboratory ETS, New Mexico MPS 294240
2003 02 02.31911 08 45 06.02 +13 05 25.7 20.5   608 – Haleakala-AMOS MPS 71046
2003 02 02.32961 08 45 05.38 +13 05 27.5 20.8   608 – Haleakala-AMOS MPS 71046
2003 02 02.33003 08 45 05.06 +13 05 28.1 19.3 C 704 – Lincoln Laboratory ETS, New Mexico MPS 294240
2003 02 02.34065 08 45 04.78 +13 05 30.7 21.3   608 – Haleakala-AMOS MPS 71046
2003 02 02.34411 08 45 04.20 +13 05 30.0 19.2 C 704 – Lincoln Laboratory ETS, New Mexico MPS 294240
2003 02 02.35814 08 45 03.40 +13 05 33.0 19.2 C 704 – Lincoln Laboratory ETS, New Mexico MPS 294240
2003 02 02.37207 08 45 02.48 +13 05 36.2 18.8 C 704 – Lincoln Laboratory ETS, New Mexico MPS 294240
2003 02 03.32485 08 44 08.82 +13 09 12.5 20.1   644 – Palomar Mountain/NEAT MPS 71046
2003 02 03.34718 08 44 07.54 +13 09 18.1 20.3   644 – Palomar Mountain/NEAT MPS 71046
2003 02 03.37386 08 44 05.95 +13 09 23.0 19.6   644 – Palomar Mountain/NEAT MPS 71046
2005 08 24.44396 22 59 40.38 -01 44 56.4 20.5   644 – Palomar Mountain/NEAT MPS 139545
2005 08 24.45515 22 59 39.85 -01 44 59.3 19.9   644 – Palomar Mountain/NEAT MPS 139545
2005 08 24.47121 22 59 39.06 -01 45 03.9 20.5   644 – Palomar Mountain/NEAT MPS 139545
2005 08 30.18833 22 55 05.19 -02 13 59.2 20.2 V 691 – Steward Observatory, Kitt Peak-Spacewatch MPS 139982
2005 08 30.20571 22 55 04.32 -02 14 04.8 20.0 V 691 – Steward Observatory, Kitt Peak-Spacewatch MPS 139983
2005 08 30.22650 22 55 03.25 -02 14 11.4 20.0 V 691 – Steward Observatory, Kitt Peak-Spacewatch MPS 139983
2005 09 12.18339 22 44 19.78 -03 27 21.4 20.1 V 691 – Steward Observatory, Kitt Peak-Spacewatch MPS 141548
2005 09 12.20075 22 44 18.94 -03 27 27.4 20.0 V 691 – Steward Observatory, Kitt Peak-Spacewatch MPS 141548
2005 09 12.21811 22 44 18.05 -03 27 33.4 19.7 V 691 – Steward Observatory, Kitt Peak-Spacewatch MPS 141548
2005 09 23.20383 22 36 07.12 -04 29 13.7 20.4 V 703 – Catalina Sky Survey MPS 142152
2005 09 23.21139 22 36 06.84 -04 29 16.7 20.4 V 703 – Catalina Sky Survey MPS 142152
2005 09 23.21906 22 36 06.48 -04 29 18.4 20.7 V 703 – Catalina Sky Survey MPS 142152
2005 09 23.22662 22 36 06.19 -04 29 20.7 19.8 V 703 – Catalina Sky Survey MPS 142152
2005 09 26.11636 22 34 15.10 -04 44 26.6 20.3 V 691 – Steward Observatory, Kitt Peak-Spacewatch MPS 142421
